www.pogodaiklimat.ru

Погода и климат >> Архив погоды >> Германия >> Райнштеттен


ПОГОДА в Райнштеттене

  • Прогноз погоды в Райнштеттене
  • Монитор погоды в Райнштеттене

АРХИВ ПОГОДЫ в Райнштеттене

Время (UTC), дата Ветер
(напр.,м/с)
 
Видим.   Явления Облачность Т
(С)
Тd
(С)
f
(%)
Тe
(С)
Тes
(С)
Комфортность P
(гПа)
Po
(гПа)
Тmin
(С)
Tmax
(С)
R
(мм)
R24
(мм)
S
(см)
19 18.06 Ю 2 55 км 10/0
[]
+23.8 +18.3 71 +28 +28 душно 1011.8 998.3
20 18.06 СВ 1 50 км 10/0
[]
+21.1 +17.8 81 +25 +25 комфорт 1011.9 998.3
21 18.06 ЮВ 1 45 км 10/0
[]
+19.5 +17.4 88 +23 +23 комфорт 1012.0 998.3
22 18.06 ЮВ 1-1
{1}
28 км 6/0
[]
+17.7 +16.6 93 +19 +19 1012.2 998.4
23 18.06 В 1 28 км 10/0
[]
+16.9 +16.1 95 +18 +18 1011.9 998.1
00 19.06 СВ 1 30 км 10/0
[]
+16.8 +16.0 95 +18 +18 1011.5 997.7
01 19.06 С 1 28 км 10/0
[]
+16.5 +15.6 94 +17 +17 1011.0 997.2
02 19.06 ЮЗ 2 7000 м дымка 10/0
[]
+15.8 +15.5 98 +16 +16 1011.0 997.1
03 19.06 Ю 1 23 км 9/0
[]
+15.9 +15.4 97 +17 +17 1010.8 996.9
04 19.06 штиль 0 12 км 10/0
[]
+15.2 +15.0 99 +15 +15 1011.0 997.1
05 19.06 Ю 1 19 км 5/0
[]
+15.6 +14.9 96 +16 +17 1011.2 997.3
06 19.06 Ю 1 35 км ясно +19.5 +15.5 78 +22 +26 комфорт 1010.7 997.0 +14.9 +26.1
07 19.06 ЮЗ 2-3
{3}
45 км ясно +23.3 +15.8 63 +28 +34 душно 1010.4 996.9
08 19.06 ЮЗ 3-4
{4}
50 км ясно +24.7 +15.9 58 +28 +36 душно 1010.5 997.1
09 19.06 ЮЗ 3 50 км ясно +26.5 +15.8 52 +30 +41 душно 1010.4 997.0
10 19.06 ЮЗ 4-6
{6}
40 км ясно +28.4 +15.6 46 +31 +42 душно 1010.0 996.7
11 19.06 ЮЗ 4 50 км 6/0
[]
+29.4 +14.2 39 +31 +40 жарко 1009.5 996.3
12 19.06 ЮЗ 4 50 км 10/0
[]
+30.2 +11.5 32 +31 +37 жарко 1009.2 996.0
13 19.06 З 4 >70 км 9/0
[]
+30.8 +13.4 35 +32 +38 жарко 1008.8 995.6
14 19.06 ЮЗ 6 40 км 10/0
[]
+31.1 +10.3 28 +31 +34 жарко 1008.3 995.1
15 19.06 ЮЗ 5 40 км 3/0
[]
+31.1 +10.7 28 +31 +35 жарко 1008.2 995.0
16 19.06 ЮЗ 3-5
{7}
>70 км 4/0
[]
+30.8 +12.1 32 +31 +35 жарко 1007.5 994.3
17 19.06 ЮЗ 4-6
{7}
60 км 1/0
[]
+29.8 +12.2 34 +31 +33 жарко 1007.3 994.1
18 19.06 З 3 >70 км ясно +28.1 +14.5 43 +30 +31 жарко 1007.8 994.5 +19.7 +31.7
19 19.06 З 2-3
{4}
50 км ясно +25.0 +14.6 52 +28 +28 жарко 1008.0 994.6
20 19.06 Ю 2 40 км 9/0
[]
+21.5 +16.8 75 +25 +25 комфорт 1009.0 995.4
21 19.06 ЮЗ 3 50 км 8/0
[]
+20.1 +15.4 74 +23 +23 комфорт 1009.7 996.1
22 19.06 ЮЗ 4 50 км 10/0
[]
+21.9 +15.1 65 +25 +25 комфорт 1009.8 996.2
23 19.06 З 9 35 км осадки {морось} 10/10 1500 м
[]
+17.8 +13.7 77 +17 +17 1012.2 998.4
00 20.06 Ю 3 40 км в посл. час дождь {морось} 10/0
[]
+16.2 +15.3 94 +16 +16 1012.5 998.6 1
01 20.06 ЮЗ 2 26 км 10/0
[]
+16.0 +15.4 96 +16 +16 1012.1 998.2
02 20.06 ЮЗ 2 20 км 10/0
[]
+15.7 +15.3 97 +16 +16 1012.4 998.5
03 20.06 ЮЗ 3 29 км 9/9 1500 м
[]
+16.5 +15.8 96 +16 +16 1012.9 999.0
04 20.06 ЮЗ 3 22 км 10/10 1500 м
[]
+16.9 +16.3 96 +17 +17 1013.0 999.2
05 20.06 ЮЗ 2-3
{4}
28 км 10/0
[]
+17.3 +16.4 94 +18 +18 1013.0 999.2
06 20.06 ЮЗ 3 45 км 10/0
[]
+18.2 +16.5 90 +19 +20 1013.3 999.5 +15.6 +28.1 1
07 20.06 ЮЗ 4 40 км 9/0
[]
+20.3 +17.1 82 +24 +26 комфорт 1013.4 999.7
08 20.06 ЮЗ 5-7
{8}
50 км 8/0
[]
+21.7 +16.8 74 +26 +29 душно 1013.2 999.6
09 20.06 ЮЗ 5 50 км 4/0
[]
+23.0 +15.7 63 +27 +33 душно 1013.1 999.5
10 20.06 ЮЗ 5 60 км 9/9 900 м
[]
+23.7 +14.6 57 +26 +27 жарко 1013.2 999.7
11 20.06 З 5 50 км слаб. морось с дождем 9/9 960 м
[]
+22.6 +16.0 66 +27 +28 душно 1013.5 999.9
12 20.06 ЮЗ 4 55 км в посл. час дождь 9/0
[]
+20.5 +16.2 76 +24 +30 комфорт 1013.5 999.8 0.2
13 20.06 Ю 2-3
{6}
55 км 10/0
[]
+20.8 +16.6 77 +25 +33 комфорт 1013.2 999.5
14 20.06 ЮЗ 4 >70 км 10/0
[]
+21.4 +16.5 74 +25 +30 комфорт 1013.1 999.5
15 20.06 ЮЗ 4 >70 км 10/0
[]
+21.0 +15.7 72 +25 +28 комфорт 1012.9 999.3
16 20.06 ЮЗ 5-7
{8}
60 км 8/0
[]
+24.5 +15.1 56 +27 +29 жарко 1012.7 999.2
17 20.06 ЮЗ 5-7
{8}
55 км ясно +24.4 +15.4 57 +27 +29 жарко 1012.8 999.3
18 20.06 З 4 60 км ясно +23.6 +13.3 52 +26 +26 жарко 1013.3 999.8 +18.2 +24.9
19 20.06 ЮЗ 3-4
{6}
65 км 9/9 1380 м
[]
+22.1 +14.8 63 +25 +25 комфорт 1014.0 1000.4
20 20.06 З 2-3
{5}
>70 км 6/0
[]
+19.7 +14.4 71 +22 +22 комфорт 1015.0 1001.3
21 20.06 З 2 65 км 10/0 2000 м
[]
+19.4 +13.9 70 +21 +21 комфорт 1015.5 1001.7
22 20.06 З 2 >70 км 9/0 2000 м
[]
+18.2 +14.6 80 +19 +19 1016.2 1002.4
23 20.06 ЮЗ 2 >70 км 10/0 2000 м
[]
+17.7 +14.4 81 +18 +18 1016.6 1002.7
00 21.06 ЮЗ 2 55 км 9/9 1500 м
[]
+17.5 +14.9 85 +18 +18 1016.8 1002.9
01 21.06 ЮЗ 2 60 км 10/10 1050 м
[]
+16.8 +14.9 89 +17 +17 1017.0 1003.1
02 21.06 Ю 1-2
{3}
60 км 10/0
[]
+16.6 +14.7 89 +17 +17 1017.2 1003.3
03 21.06 Ю 1 55 км 10/10 1260 м
[]
+16.4 +14.6 89 +17 +17 1017.1 1003.2
04 21.06 ЮЗ 2 60 км 10/10 960 м
[]
+16.5 +14.7 89 +17 +17 1017.5 1003.6
05 21.06 ЮЗ 1 45 км 4/4 900 м
[]
+16.5 +15.1 91 +17 +18 1017.5 1003.6
06 21.06 ЮЗ 3 65 км 9/9 1000 м
[]
+18.2 +14.5 79 +19 +19 1017.8 1004.0 +16.1 +23.6
07 21.06 З 2-3
{4}
65 км 1/1 1320 м
[]
+19.7 +14.2 71 +22 +28 комфорт 1018.1 1004.3
08 21.06 Ю 2-3
{4}
>70 км ясно +21.0 +13.8 63 +24 +35 комфорт 1018.2 1004.5
09 21.06 З 2 >70 км 3/3 930 м
[]
+21.5 +13.2 59 +24 +34 комфорт 1018.4 1004.7
10 21.06 З 3-5
{5}
>70 км ясно +23.2 +11.3 47 +25 +39 комфорт 1018.2 1004.6
11 21.06 СЗ 2-5
{5}
>70 км 1/1 1170 м
[]
+24.2 +13.3 51 +26 +43 жарко 1018.0 1004.4
12 21.06 С 2 65 км 1/1 1300 м
[]
+24.4 +12.2 46 +26 +42 жарко 1017.8 1004.2
13 21.06 З 3-6
{6}
>70 км 5/0
[]
+24.7 +12.1 45 +26 +36 жарко 1017.6 1004.0
14 21.06 СЗ 3-6
{7}
50 км 1/1 1500 м
[]
+24.6 +10.2 40 +26 +36 жарко 1017.3 1003.7
15 21.06 С 3 50 км 3/0
[]
+24.9 +10.8 41 +26 +33 жарко 1016.9 1003.4
16 21.06 С 3-5
{5}
>70 км 1/0
[]
+25.4 +10.8 40 +26 +31 жарко 1016.7 1003.2
17 21.06 СЗ 2-4
{5}
40 км ясно +25.0 +10.9 41 +26 +29 жарко 1016.5 1003.0
18 21.06 С 3 55 км ясно +24.4 +10.7 42 +26 +26 жарко 1016.8 1003.2 +18.1 +25.7
19 21.06 СВ 4 >70 км 8/8 1500 м
[]
+23.4 +10.5 44 +25 +25 комфорт 1017.3 1003.7
20 21.06 СВ 4 55 км 9/0 2000 м
[]
+22.4 +10.5 47 +24 +24 комфорт 1018.2 1004.5
21 21.06 С 4 >70 км 8/0 2000 м
[]
+21.1 +9.9 49 +23 +23 комфорт 1018.4 1004.7
22 21.06 СВ 3-4
{6}
65 км ясно +18.9 +10.6 59 +20 +20 1018.5 1004.7
23 21.06 СВ 3-5
{5}
60 км 8/0
[]
+18.1 +10.7 62 +18 +18 1019.1 1005.2
00 22.06 СВ 3 50 км ясно +16.4 +10.8 69 +16 +16 1019.3 1005.3
01 22.06 СВ 3-4
{4}
50 км 10/0
[]
+16.5 +10.6 68 +16 +16 1019.2 1005.2
02 22.06 СВ 3 >70 км 10/0
[]
+16.1 +10.0 67 +16 +16 1018.9 1004.9
03 22.06 С 4 55 км 10/0
[]
+16.0 +9.8 67 +15 +15 1018.4 1004.4
04 22.06 СВ 3 60 км 10/0
[]
+16.1 +10.2 68 +16 +16 1018.3 1004.3
05 22.06 СВ 3-4
{5}
55 км 10/0
[]
+16.0 +10.5 70 +16 +16 1018.3 1004.3
06 22.06 С 4 60 км 10/0
[]
+16.8 +10.7 67 +16 +17 1018.2 1004.3 +15.5 +24.5
07 22.06 СВ 4 55 км 10/0
[]
+18.3 +11.2 63 +18 +21 1018.1 1004.2
08 22.06 СВ 3 40 км слаб. дождь 10/0 2000 м
[]
+18.4 +12.3 68 +19 +23 1018.0 1004.1
09 22.06 ЮВ 2 35 км в посл. час дождь {морось} 10/0 2000 м
[]
+17.6 +14.1 80 +18 +25 1017.8 1003.9 0.0
10 22.06 ЮВ 1 35 км в посл. час дождь {морось} 9/0 2000 м
[]
+17.8 +15.2 85 +19 +30 1017.7 1003.8
11 22.06 ЮВ 2 35 км 10/0 2000 м
[]
+19.9 +15.1 74 +23 +32 комфорт 1017.5 1003.7
12 22.06 ЮВ 2 30 км слаб. дождь {морось} 10/10 270 м
[]
+19.9 +16.0 78 +23 +23 комфорт 1017.0 1003.3 0.1
13 22.06 Ю 2 30 км в посл. час дождь 10/0 2000 м
[]
+21.2 +16.3 74 +25 +33 комфорт 1016.3 1002.6
14 22.06 ЮВ 1 35 км 10/0 2000 м
[]
+22.1 +16.5 71 +26 +34 душно 1016.1 1002.5
15 22.06 СЗ 2 35 км {дождь} 10/0
[]
+22.5 +16.9 71 +27 +32 душно 1016.0 1002.4 0.0
16 22.06 СЗ 2 45 км в посл. час морось 9/9 1500 м
[]
+22.3 +17.0 72 +27 +27 душно 1015.7 1002.1
17 22.06 В 4 25 км слаб. дождь {морось} 9/9 540 м
[]
+18.3 +16.4 89 +19 +19 1016.8 1003.0
18 22.06 В 2 30 км слаб. дождь {морось} 9/0
[]
+17.5 +16.4 93 +18 +19 1016.9 1003.0 +16.7 +23.3 1
19 22.06 СВ 2 27 км в посл. час дождь 10/0
[]
+17.6 +16.9 96 +18 +18 1016.9 1003.1
20 22.06 З 2 19 км в посл. час дождь {морось} 10/0
[]
+17.3 +16.5 95 +18 +18 1017.2 1003.3
21 22.06 СВ 1 20 км {дождь, морось} 10/0
[]
+16.8 +16.2 96 +18 +18 1017.5 1003.6 0.0
22 22.06 ЮВ 1 5000 м в посл. час туман {дымка} 10/0 2000 м
[]
+16.1 +15.9 99 +17 +17 1017.6 1003.7
23 22.06 З 1 300 м туман {дымка} 9/0
[]
+15.4 +15.4 100 +16 +16 1017.5 1003.5
00 23.06 ЮЗ 1 200 м туман {дождь} 9/9 <50 м
[]
+14.7 +14.6 99 +15 +15 1017.6 1003.6 0.0
01 23.06 ЮЗ 1 100 м туман 9/9 <50 м
[]
+14.7 +14.7 100 +15 +15 1017.6 1003.6
02 23.06 Ю 1 1300 м в посл. час туман {дымка} 6/6 30 м
[]
+15.2 +15.2 100 +16 +16 1017.4 1003.4
03 23.06 штиль 0 6000 м в посл. час туман {дымка} 10/0
[]
+14.1 +14.1 100 +14 +14 1017.5 1003.5 0.0
04 23.06 СЗ 1-1
{2}
5000 м в посл. час туман {дымка} 4/0
[]
+13.4 +13.4 100 +13 +14 1017.7 1003.6
05 23.06 штиль 0-1
{1}
6000 м в посл. час туман {дымка} 5/5 210 м
[]
+14.5 +14.4 99 +14 +15 1017.9 1003.9
06 23.06 СВ 3 7000 м дымка {туман} 9/9 200 м
[]
+16.5 +16.0 97 +16 +16 1018.0 1004.1 +13.1 +17.8 0.0
07 23.06 СВ 3-3
{3}
17 км 3/3 420 м
[]
+18.2 +16.1 88 +19 +22 1017.9 1004.1
08 23.06 В 4 26 км 4/4 360 м
[]
+19.4 +16.3 82 +21 +25 комфорт 1018.3 1004.5
09 23.06 СВ 4 35 км 1/1 630 м
[]
+22.2 +16.0 68 +26 +35 душно 1018.0 1004.3
10 23.06 В 3-6
{8}
>70 км ясно +23.5 +15.8 62 +27 +40 душно 1018.0 1004.4
11 23.06 В 5 65 км 5/5 1020 м
[]
+24.0 +15.6 59 +27 +32 жарко 1017.8 1004.2
12 23.06 В 4 60 км 8/8 1000 м
[]
+24.7 +16.6 61 +28 +31 душно 1017.7 1004.2
13 23.06 ЮВ 4-6
{10}
65 км 3/3 1230 м
[]
+26.6 +16.3 53 +30 +38 душно 1017.1 1003.7
14 23.06 В 4-7
{8}
55 км 1/1 1350 м
[]
+26.7 +15.8 51 +30 +38 душно 1017.0 1003.6
15 23.06 В 5 65 км 4/4 1500 м
[]
+27.3 +15.5 48 +30 +33 душно 1016.5 1003.1
16 23.06 СВ 4-7
{7}
55 км 5/0
[]
+27.8 +15.4 47 +31 +34 душно 1016.4 1003.0
17 23.06 В 4 55 км 10/0
[]
+27.3 +15.7 49 +30 +31 душно 1016.3 1002.9
18 23.06 В 3 60 км 10/0
[]
+26.1 +16.2 54 +29 +30 жарко 1016.4 1002.9 +16.7 +28.5
19 23.06 В 3 55 км 10/0
[]
+24.7 +16.3 60 +28 +28 душно 1016.7 1003.2
20 23.06 В 2 50 км 10/0
[]
+23.0 +16.5 67 +28 +28 душно 1017.1 1003.5
21 23.06 В 1 50 км 10/0
[]
+20.2 +16.8 81 +24 +24 комфорт 1017.8 1004.1
22 23.06 В 1 35 км 10/0
[]
+18.5 +16.9 90 +20 +20 1018.3 1004.5
23 23.06 В 2-3
{3}
22 км н/о +17.7 +16.3 92 +18 +18 1018.4 1004.5
00 24.06 В 1 30 км н/о +17.9 +16.5 92 +19 +19 1018.7 1004.8
01 24.06 В 2-3
{3}
30 км 10/0
[]
+17.4 +15.7 90 +18 +18 1018.7 1004.8
02 24.06 СВ 2 28 км 9/0
[]
+17.5 +15.6 89 +18 +18 1018.5 1004.6
03 24.06 В 3 30 км 9/0
[]
+18.2 +16.2 88 +19 +19 1018.1 1004.3
04 24.06 В 3 35 км 10/0
[]
+18.5 +16.2 86 +19 +19 1018.4 1004.6
05 24.06 В 4-7
{7}
50 км н/о +19.5 +16.2 81 +21 +21 комфорт 1018.7 1004.9
06 24.06 В 5 45 км ясно +21.6 +16.7 74 +26 +27 душно 1018.6 1004.9 +17.0 +26.0
07 24.06 СВ 5-7
{8}
>70 км ясно +23.6 +17.2 67 +27 +31 жарко 1018.4 1004.8
08 24.06 В 3-5
{7}
60 км 5/0
[]
+25.6 +17.6 61 +30 +36 душно 1018.1 1004.6
09 24.06 СВ 4 50 км ясно +26.8 +17.5 57 +31 +40 душно 1018.0 1004.6
10 24.06 СВ 4-6
{7}
55 км ясно +28.3 +17.8 53 +33 +44 очень
душно
1017.8 1004.4
11 24.06 В 5-9
{9}
55 км ясно +29.0 +17.8 51 +33 +43 очень
душно
1017.6 1004.3
12 24.06 В 5-9
{10}
50 км ясно +30.3 +17.6 47 +35 +44 очень
душно
1017.2 1003.9
13 24.06 СВ 7-10
{10}
40 км ясно +31.1 +17.0 43 +35 +39 очень
душно
1016.8 1003.6
14 24.06 В 6-9
{10}
65 км ясно +31.9 +17.4 42 +36 +41 очень
душно
1016.7 1003.5
15 24.06 В 5 45 км 4/0
[]
+31.4 +17.4 43 +35 +39 очень
душно
1016.7 1003.5
16 24.06 В 4-7
{8}
65 км 8/0
[]
+31.3 +17.7 44 +35 +38 очень
душно
1016.4 1003.2
17 24.06 В 5 65 км 9/0
[]
+30.7 +17.3 45 +35 +36 очень
душно
1016.5 1003.2
18 24.06 В 3 55 км 9/0
[]
+30.0 +17.1 46 +34 +34 очень
душно
1016.7 1003.4 +21.6 +32.1
19 24.06 В 3 60 км 4/0
[]
+28.2 +17.5 52 +32 +32 душно 1016.7 1003.3
20 24.06 В 3-4
{5}
50 км 9/0
[]
+25.6 +17.8 62 +30 +30 душно 1017.0 1003.5
21 24.06 В 3 65 км 10/0
[]
+25.2 +17.3 62 +29 +29 душно 1017.4 1003.9
22 24.06 В 3 65 км 9/0
[]
+24.4 +16.6 62 +28 +28 душно 1017.5 1004.0
23 24.06 В 3 60 км 10/0
[]
+23.7 +16.2 63 +27 +27 жарко 1017.4 1003.8
00 25.06 В 2 55 км 10/0
[]
+22.0 +15.9 68 +26 +26 душно 1017.4 1003.7
01 25.06 В 3 50 км 10/0
[]
+19.7 +16.1 80 +22 +22 комфорт 1017.4 1003.6
02 25.06 ЮВ 1 50 км 6/0
[]
+19.7 +15.9 79 +23 +23 комфорт 1017.0 1003.2
03 25.06 В 1 40 км 5/0
[]
+17.7 +15.7 88 +19 +19 1016.8 1003.0
04 25.06 С 1 40 км 10/0
[]
+17.0 +15.2 89 +18 +18 1017.3 1003.4
05 25.06 СЗ 1-1
{1}
35 км 3/0
[]
+19.4 +17.1 87 +23 +24 комфорт 1017.6 1003.8
06 25.06 СЗ 1 55 км 1/0
[]
+20.8 +17.1 79 +26 +29 душно 1018.1 1004.4 +16.9 +30.0
07 25.06 Ю 1 40 км 4/0
[]
+22.9 +16.7 68 +28 +34 душно 1018.7 1005.1
08 25.06 ЮЗ 2-3
{3}
40 км ясно +25.0 +17.5 63 +29 +39 душно 1018.9 1005.4
09 25.06 ЮЗ 2 35 км ясно +27.2 +18.1 58 +32 +45 очень
душно
1018.9 1005.5
10 25.06 З 2-4
{4}
45 км ясно +28.5 +18.3 54 +33 +50 очень
душно
1019.0 1005.6
11 25.06 ЮЗ 2-3
{4}
55 км ясно +30.9 +17.5 45 +35 +53 опасность
солнечного
удара
1018.9 1005.6
12 25.06 СЗ 2-3
{6}
65 км ясно +31.5 +17.8 44 +36 +53 опасность
солнечного
удара
1018.8 1005.6
13 25.06 Ю 2 40 км 5/0
[]
+33.0 +16.7 38 +36 +48 очень
душно
1018.5 1005.3
14 25.06 З 2-5
{5}
65 км 8/0
[]
+33.3 +16.1 36 +36 +44 очень
душно
1018.4 1005.2
15 25.06 В 2-3
{5}
55 км ясно +33.9 +14.3 31 +35 +45 очень
жарко
1018.2 1005.0
16 25.06 В 2 40 км 5/0
[]
+34.4 +16.5 34 +37 +41 очень
душно
1017.9 1004.8
17 25.06 В 2 40 км 8/0
[]
+33.8 +19.1 42 +39 +41 очень
душно
1017.7 1004.6

 

Местоположение метеостанции Райнштеттен (Германия): широта 48.97 долгота 8.32 высота над уровнем моря 118 м.

В архиве по умолчанию представлена погода в Райнштеттене за последнюю неделю. Архивные данные за месяц целиком и за предыдущие месяцы, начиная с января 2011 года, Вы можете получить, выбрав интересующий диапазон дат из раскрывающегося списка и нажав кнопку "Ввод!".


*Определитесь, кто Вы:
робот инопланетянин человек

Внимание! Время в таблицах - всемирное. Для получения местного времени необходимо прибавить поправку, которая равна 1 ч.

Смотрите также архив погоды в соседних городах и на ближайших метеорологических станциях:

Погода в Мюлаккере (Германия) (40 км)
Погода в Вайнбите (Германия) (48 км)
Погода в Вайбштадте (Германия) (56 км)
Погода в Фройденштадте (Германия) (58 км)
Погода в Мангейме (Германия) (63 км)
Погода в Штутгарте (Германия) (66 км)
Погода в Страсбурге (Франция) (69 км)
Погода в Штутгарт аэропорту (Германия) (73 км)
Погода в Ларе (Германия) (76 км)
Погода в Саарбрюккене (Германия) (92 км)

Пояснения к столбцам:

Ветер - указаны скорость ветра в м/с - средняя за 10 мин, порывы в срок и между сроками (в фигурных скобках) и направление, откуда дует ветер: С - северный, СВ - северо-восточный, В - восточный, ЮВ - юго-восточный, Ю - южный, ЮЗ - юго-западный, З - западный, СЗ - северо-западный.
Видимость - горизонтальная дальность видимости в метрах или километрах. При видимости от 1 до 10 км при отсутствии осадков обычно наблюдается дымка, при ухудшении видимости до 1 км и менее - туман. В сухую погоду видимость может ухудшаться дымом, пылью или мглою.
Явления - указаны атмосферные явления, наблюдавшиеся в срок или в последний час перед сроком; фигурными скобками обозначены явления, наблюдавшиеся между сроками (за 1-3 часа до срока); квадратными скобками обозначены град или гололедные отложения с указанием их диаметра в мм.
Облачность - указаны через наклонную черту общая и нижняя облачность в баллах и высота нижней границы облаков в метрах; квадратными скобками обозначены формы облаков: Ci - перистые, Cs - перисто-слоистые, Cc - перисто-кучевые, Ac - высококучевые, As - высокослоистые, Sc - слоисто-кучевые, Ns - слоисто-дождевые, Cu - кучевые, Cb - кучево-дождевые. Подробнее классификацию облаков см. в Атласе облаков (PDF).
T - Температура воздуха - температура, измеренная на высоте 2 м над землей.
Td - Температура точки росы - температура, при понижении до которой содержащийся в воздухе водяной пар достигнет насыщения.
f - Относительная влажность воздуха - влажноcть воздуха, измеренная на высоте 2 м над землей.
Te - Эффективная температура - температура, которую ощущает одетый по сезону человек в тени. Характеристика душности погоды. При расчете учитывается влияние влажности воздуха и скорости ветра на теплоощущения человека.
Tes - Эффективная температура на солнце - температура, которую ощущает человек, с поправкой на солнечный нагрев. Характеристика знойности погоды. Зависит от высоты солнца над горизонтом, облачности и скорости ветра. Ночью, в пасмурную погоду, а также при ветре 12 м/с и более поправка равна нулю.
P - Атмосферное давление - приведенное к уровню моря атмосферное давление.
Po - Атмосферное давление - измеренное на уровне метеостанции атмосферное давление.
Tmin - Минимальная температура - минимум температуры воздуха на высоте 2 м над землей.
Tmax - Максимальная температура - максимум температуры воздуха на высоте 2 м над землей.
R - Количество осадков - Количество выпавших осадков за период времени, мм. При наведении курсора мыши на число - период времени, за который выпало указанное количество осадков.
R24 - Количество осадков - Количество выпавших осадков за 24 часа, мм.
S - Снежный покров - Высота снежного покрова, см. При наведении курсора мыши на число - состояние снежного покрова и степень покрытия местности в баллах.